Location: Sungai Jaoh
(2.9167°N, 113.9167°E)
Time: 05:59:46
(UTC+00:00)

GPS 2-12 Rocket1 - Pass Details

Date: 30 November 2020
Orbit: 586 x 651 km, 20.0° (Epoch: 25 January)

Event Time Altitude Azimuth Distance (km) Brightness Sun altitude
Exits shadow 20:55:44 28° 238° (WSW) 1,102 4.0 -19.1°
Maximum altitude 20:57:06 35° 201° (SSW) 951 4.0 -18.8°
Drops below altitude 10° 21:01:08 10° 135° (SE) 1,895 6.6 -17.8°
Sets 21:03:37 0° 126° (SE) 2,799 8.0 -17.3°
